Tracking 20628 objects as of 7-Apr-2020
HD Live streaming from Space Station
objects crossing your sky now

INTELSAT 804

Track INTELSAT 804 now!
INTELSAT 804 is classified as:


NORAD ID: 25110
Int'l Code: 1997-083A
Perigee: 35,791.1 km
Apogee: 35,860.3 km
Inclination: 10.9 °
Period: 1,437.7 minutes
Semi major axis: 42196 km
RCS: 10.0118 m2 (large)
Launch date: December 21, 1997
Source: International Telecommunications Satellite Organization (ITSO)
Launch site: FRENCH GUIANA (FRGUI)
aabbcc
Your satellite tracking list
Your tracking list is empty




NASA's NSSDC Master Catalog

Two Line Element Set (TLE):
1 25110U 97083A   20098.56637678  .00000029  00000-0  00000+0 0  9993
2 25110  10.8817  32.9593 0008200 339.5774 261.1155  1.00158034 81748
Source of the keplerian elements: AFSPC